Dewpoint
36 30 28 30 32 32 32 32 28 29 33 33 33 38 46 54 57 55 51 55 53 54 57 59 59 60 62 64 68 69 71 74 72 72 71 71 69 72 72 73 73 76 76 76
34 32 31 29 32 31 32 29 25 25 28 33 34 35 50 55 56 56 56 61 55 54 55 59 60 60 61 65 68 71 72 74 73 72 72 71 72 70 70 72 74 75 75 77
33 33 33 30 30 26 31 30 27 23 24 34 34 33 38 50 51 55 59 56 54 55 54 57 59 60 61 64 68 70 72 75 74 73 73 74 73 74 70 69 71 73 75 76
34 32 30 30 27 26 25 31 29 25 23 22 33 30 39 38 41 51 48 50 51 54 56 55 57 59 60 64 67 71 73 74 74 75 72 73 68 67 68 69 70 72 74 75
33 32 27 28 27 24 22 23 26 26 24 22 23 29 32 40 37 36 43 44 51 52 55 55 56 59 60 62 66 69 73 74 75 74 75 71 71 68 69 69 73 73 76 76
31 31 23 19 23 17 17 16 18 22 22 22 24 29 31 33 39 35 39 40 49 51 54 56 57 58 59 61 65 68 72 74 75 75 74 76 72 72 67 69 70 72 74 75
31 32 22 16 17 16 15 14 14 15 17 20 23 24 32 33 36 35 37 39 42 51 53 57 58 57 60 61 63 66 73 74 75 75 75 74 76 73 73 76 68 71 70 72
21 26 27 17 17 17 16 14 16 20 15 14 22 23 27 32 32 35 37 39 40 45 53 56 58 59 60 60 63 66 71 74 75 74 75 75 75 75 71 73 71 69 70 70
22 22 24 21 18 18 17 15 13 13 12 11 14 21 22 28 29 31 29 37 40 42 51 55 57 58 59 60 63 65 70 74 75 75 76 76 75 75 74 73 74 74 73 71
23 22 20 20 19 18 17 17 13 13 19 19 13 23 22 29 31 31 29 31 37 43 47 53 56 59 59 59 62 65 69 73 75 75 76 76 76 75 74 75 73 73 75 76
19 22 21 21 21 18 16 17 16 12 14 15 15 14 22 32 31 32 31 33 33 40 46 50 54 58 60 60 60 64 67 72 74 75 76 76 76 76 75 73 74 74 75 76
26 18 22 22 20 20 17 18 20 21 26 18 19 15 24 24 28 28 30 33 34 39 46 49 53 57 59 60 60 62 64 67 73 75 76 76 76 77 76 75 74 75 76 77
33 28 24 25 24 20 20 18 16 19 14 28 17 17 28 25 27 30 30 32 40 46 48 50 51 57 59 61 62 62 64 65 68 74 75 75 76 76 76 76 75 75 75 76
37 32 31 24 28 25 24 19 18 15 22 20 21 23 25 24 24 30 36 36 39 46 45 50 51 53 59 62 64 65 64 64 67 70 73 75 76 76 76 77 77 76 76 75
33 33 32 27 26 25 19 19 19 20 23 22 22 25 28 29 29 35 38 40 41 45 46 53 49 53 59 63 65 66 65 67 66 69 71 74 75 76 77 77 77 77 76 76
32 33 34 32 30 28 26 19 19 19 17 19 21 22 31 32 36 39 41 40 44 46 46 50 53 56 58 62 66 66 67 67 68 70 70 73 75 75 76 76 76 77 77 77
30 31 33 31 32 30 28 27 21 22 21 20 23 30 34 34 37 40 43 39 41 39 42 49 52 59 66 61 66 67 67 68 70 70 72 73 74 75 76 76 77 76 77 77
27 31 32 30 34 30 31 31 28 24 22 21 23 26 29 35 38 41 43 40 37 37 40 47 41 46 55 51 51 66 68 71 70 72 72 74 75 75 76 76 77 77 76 77
26 28 28 29 29 32 31 30 29 28 28 27 25 28 31 33 34 39 38 40 43 47 48 48 41 41 55 51 55 65 65 69 71 71 72 73 75 75 76 76 76 77 77 76
23 28 27 29 27 27 32 30 29 30 28 32 30 30 31 32 30 40 52 50 52 54 57 58 56 54 56 60 49 66 64 70 70 71 72 74 73 75 75 76 76 77 77 76
20 24 24 25 26 28 35 31 28 30 43 46 46 43 35 40 50 53 51 53 54 55 56 59 60 60 63 65 66 71 72 69 71 71 73 74 75 74 76 77 77 77 77 77
21 22 22 25 26 27 32 30 36 46 45 42 43 44 46 48 48 47 48 51 52 57 57 58 62 63 65 66 68 69 72 74 78 74 74 75 76 73 74 77 77 78 77 77
22 30 24 26 25 38 30 33 34 32 37 39 40 39 41 40 40 41 43 50 51 54 58 59 64 66 68 67 75 74 75 78 78 78 76 76 76 76 75 77 77 76 77 76
26 26 23 27 30 31 30 30 33 32 33 34 34 35 37 38 37 42 44 48 51 54 57 59 63 66 68 74 74 76 77 77 78 78 77 77 77 76 76 75 76 76 75 75
24 26 26 27 30 30 29 30 31 33 34 33 34 34 35 36 36 43 46 49 51 54 59 61 66 69 71 76 76 75 77 76 76 77 76 76 75 76 76 72 69 74 69 65
28 30 30 30 36 37 38 33 32 31 31 33 33 34 35 36 40 43 46 48 49 52 61 62 68 67 70 74 74 76 78 77 77 75 75 72 72 74 74 68 65 48 48 46
Lifted_Index
6 6 6 6 5 4 3 2 1 0 -0 -0 -0 -1 -2 -1 -1 -2 -3 -3 -3 -2 -2 -2 -2 -2 -2 -2 -3 -3 -4 -4 -5 -4 -4 -4 -3 -2 -2 -2 -3 -4 -5 -5
5 5 6 6 5 4 3 2 1 -0 -0 -0 -1 -1 -2 -2 -1 -2 -2 -3 -3 -2 -2 -2 -2 -2 -2 -2 -3 -3 -4 -5 -5 -4 -4 -4 -3 -3 -2 -2 -3 -4 -5 -5
5 5 5 5 5 5 4 3 1 -0 -1 -1 -0 -1 -2 -2 -2 -1 -2 -2 -2 -2 -2 -2 -2 -2 -2 -2 -3 -4 -4 -5 -5 -4 -4 -4 -3 -3 -2 -2 -3 -4 -5 -5
5 5 5 5 6 6 5 4 2 0 -1 -1 -1 -1 -1 -1 -1 -2 -2 -3 -2 -3 -3 -2 -2 -1 -1 -2 -3 -4 -4 -5 -5 -5 -4 -4 -3 -2 -2 -2 -3 -4 -5 -6
5 5 5 6 6 6 5 4 2 1 -0 -1 -1 -1 -1 -1 -1 -1 -2 -3 -3 -3 -3 -2 -2 -1 -1 -2 -3 -4 -4 -5 -5 -5 -4 -4 -3 -2 -2 -2 -3 -4 -5 -6
5 5 5 6 5 5 4 3 2 1 0 -0 -0 -0 -0 -0 -0 -0 -1 -2 -3 -3 -3 -3 -2 -1 -1 -1 -2 -3 -4 -5 -5 -5 -5 -4 -4 -3 -3 -3 -3 -4 -5 -6
4 5 5 5 5 5 4 3 2 1 1 1 0 0 0 -0 -0 -0 -0 -1 -2 -3 -3 -3 -2 -2 -1 -1 -2 -3 -4 -5 -5 -5 -5 -5 -4 -4 -3 -3 -3 -3 -4 -5
5 5 5 5 5 5 4 4 3 1 0 1 1 1 1 0 -0 -1 -1 -1 -2 -3 -3 -3 -3 -2 -1 -1 -2 -3 -4 -5 -6 -5 -5 -5 -5 -4 -4 -3 -3 -3 -4 -4
4 4 4 4 4 4 4 4 3 1 -0 -0 0 1 1 1 0 -0 -1 -1 -1 -2 -3 -3 -3 -2 -2 -1 -1 -3 -4 -6 -6 -6 -6 -5 -5 -4 -4 -4 -4 -4 -4 -4
4 3 3 3 3 4 4 4 3 2 0 -1 -1 -0 0 0 0 0 -0 -1 -1 -2 -3 -3 -3 -3 -2 -2 -2 -2 -4 -5 -6 -6 -6 -6 -5 -5 -5 -4 -4 -5 -5 -5
3 2 1 1 2 3 4 3 3 2 1 0 -1 -1 -0 0 0 0 0 -0 -0 -2 -2 -3 -3 -3 -3 -2 -2 -2 -3 -5 -6 -6 -6 -6 -6 -6 -5 -5 -5 -5 -6 -6
2 2 1 1 1 2 3 3 3 3 2 1 -0 -0 0 0 0 0 0 0 0 -1 -2 -3 -3 -3 -3 -3 -2 -2 -3 -4 -5 -6 -6 -6 -7 -7 -6 -6 -6 -6 -7 -7
2 2 2 1 1 1 2 3 3 2 2 2 1 0 0 0 0 1 1 1 1 -0 -2 -3 -3 -3 -3 -3 -3 -3 -3 -4 -5 -6 -7 -7 -7 -8 -7 -7 -6 -6 -7 -7
2 2 2 1 1 1 1 3 3 2 2 2 1 0 1 1 1 1 2 2 2 0 -1 -3 -3 -3 -3 -4 -4 -4 -4 -4 -5 -6 -7 -7 -8 -8 -8 -8 -7 -7 -7 -7
2 2 2 1 1 1 1 2 3 2 1 1 0 0 1 2 2 2 3 3 2 1 -1 -2 -3 -3 -3 -4 -4 -4 -4 -4 -5 -5 -7 -8 -8 -9 -9 -9 -8 -8 -8 -8
3 2 2 1 1 1 0 1 2 1 1 -0 -0 -0 1 2 3 3 3 3 3 2 1 -0 -1 -2 -2 -3 -4 -5 -5 -5 -5 -6 -7 -8 -8 -9 -9 -9 -9 -9 -9 -9
4 3 2 2 2 1 0 0 1 0 -0 -0 -0 -0 0 1 2 3 4 4 4 4 3 2 2 1 -1 -2 -4 -5 -5 -5 -5 -6 -7 -7 -8 -8 -9 -9 -9 -9 -9 -9
5 4 3 2 1 1 1 0 1 0 -0 -0 -0 -0 -0 0 1 3 4 4 5 5 4 4 3 2 1 -0 -2 -4 -5 -6 -6 -6 -7 -7 -8 -9 -9 -9 -9 -9 -9 -10
6 5 4 2 1 1 1 1 1 1 0 0 0 0 0 1 1 2 3 4 4 4 4 4 3 3 1 1 -1 -3 -5 -6 -6 -6 -7 -7 -8 -9 -9 -9 -9 -9 -9 -10
5 5 3 2 2 1 1 1 1 1 0 0 0 0 1 1 1 1 2 3 2 2 2 2 2 1 1 0 -1 -2 -4 -5 -6 -7 -7 -8 -8 -9 -9 -9 -10 -10 -10 -10
4 4 3 2 2 1 1 1 1 0 -0 -0 0 1 1 1 1 2 3 3 2 2 2 1 1 0 -0 0 -0 -1 -2 -4 -6 -7 -8 -8 -9 -9 -9 -9 -10 -10 -10 -10
2 3 2 2 2 2 2 2 2 1 0 1 1 2 3 3 4 5 5 4 3 2 1 1 -0 -1 -1 -0 -1 -1 -2 -4 -6 -7 -8 -9 -9 -9 -9 -9 -10 -10 -10 -9
1 1 2 2 2 2 3 3 4 3 3 3 4 6 6 7 7 7 6 6 4 3 2 0 -1 -2 -1 -1 -2 -2 -3 -5 -6 -7 -8 -8 -8 -8 -8 -9 -9 -9 -9 -9
2 2 2 2 3 3 4 5 5 6 6 7 8 9 9 9 8 7 7 6 6 4 2 0 -2 -2 -3 -3 -4 -4 -5 -5 -6 -7 -7 -7 -8 -8 -8 -8 -8 -8 -8 -8
3 3 3 4 4 4 5 6 7 7 9 10 11 11 11 10 9 8 8 8 7 5 2 -0 -2 -3 -4 -5 -5 -5 -6 -6 -6 -7 -7 -7 -7 -7 -7 -6 -7 -7 -7 -7
3 4 4 5 5 5 6 7 7 8 9 10 11 11 11 11 10 9 9 9 8 6 3 0 -2 -3 -5 -6 -6 -6 -7 -7 -7 -7 -7 -7 -7 -7 -7 -6 -6 -6 -6 -6